Regional Weather Roundup
Issued by NWS Northern Indiana

Home | Current Version | Previous Version | Graphics & Text | Print | Product List | Glossary On
Versions: 1 2 3 4 5 6 7 8 9 10 11 12 13 14 15 16 17 18 19 20 21 22 23 24 25 26 27 28 29 30 31 32 33 34 35 36 37 38 39 40 41 42 43 44 45 46 47 48 49 50
000
ASUS43 KIWX 031110
RWRIWX

KIWX WEATHER ROUNDUP
NATIONAL WEATHER SERVICE NORTHERN INDIANA
700 AM EDT FRI JUL 03 2015

NOTE: "FAIR" INDICATES FEW OR NO CLOUDS BELOW 12,000 FEET WITH NO
SIGNIFICANT WEATHER AND/OR OBSTRUCTIONS TO VISIBILITY.

* THESE STATIONS ARE NOT UNDER NWS QUALITY CONTROL. THEY ALSO MAY NOT
  REPORT WEATHER SUCH AS PRECIPITATION OR FOG.

INZ001>027-031200-
NORTHERN INDIANA

CITY           SKY/WX    TMP DP  RH WIND       PRES   REMARKS
GARY*          CLOUDY    61  57  88 CALM      29.96S
VALPARAISO     CLOUDY    58  54  86 NE5       29.96S
MICHIGAN CITY* MOCLDY    54  54 100 CALM      29.97R
LAPORTE*       MOCLDY    59  58  96 CALM      29.97R
KNOX*          CLOUDY    55  55 100 CALM      29.95R
SOUTH BEND     MOCLDY    58  54  86 NE3       29.98R
ELKHART*       CLEAR     57  54  88 CALM      29.98
GOSHEN         MOCLDY    58  55  90 E3        29.97R
MONTICELLO*    CLOUDY    61  56  85 E3        29.93R
LOGANSPORT*    MOCLDY    59  50  72 NE6       29.94S
ROCHESTER*     CLOUDY    61  55  82 NE5       29.96S
WARSAW*          N/A     55  55 100 E5        29.97R
ANGOLA*          N/A     55  54  94 E5        29.98S
FORT WAYNE     MOCLDY    59  55  87 E7        29.97R
HUNTINGTON*    CLOUDY    58  55  89 NE3       29.96R
PERU/GRISSOM   MOCLDY    61  53  73 E7        29.92F
MARION*        MOCLDY    59  53  80 E6        29.95R

$$
INZ028>050-031200-
CENTRAL INDIANA

CITY           SKY/WX    TMP DP  RH WIND       PRES   REMARKS
LAFAYETTE      MOCLDY    62  56  80 E9        29.91S
KOKOMO*        CLOUDY    61  54  77 E9        29.93S
MUNCIE*        MOCLDY    61  54  77 E8        29.93S
INDIANAPOLIS   CLOUDY    63  59  87 NE9       29.89R

$$
MIZ043>046-050>051-056>058-064>065-071>073-077>080-031200-
SOUTHWEST LOWER MICHIGAN

CITY           SKY/WX    TMP DP  RH WIND       PRES   REMARKS
BATTLE CREEK   PTCLDY    55  50  83 CALM      30.00R
BENTON HARBOR  PTCLDY    52  50  93 CALM      29.97S
COLDWATER*     PTCLDY    53  53  98 E3        29.99R
HILLSDALE*     PTCLDY    55  52  92 CALM      29.99S
HOLLAND        MOCLDY    55  49  80 E3        30.00R
GRAND RAPIDS   MOCLDY    52  49  89 NE5       30.00S
KALAMAZOO      PTCLDY    54  50  86 CALM      30.00R
STURGIS*       PTCLDY    55  54  94 E5        29.97S
THREE RIVERS*  FAIR      54  52  94 CALM      29.98S

$$
OHZ001>008-015>018-024>025-031200-
NORTHWEST OHIO

CITY           SKY/WX    TMP DP  RH WIND       PRES   REMARKS
DEFIANCE       PTCLDY    57  54  89 NE3       29.97S
FINDLAY        PTCLDY    60  55  83 E6        29.96R
TOLEDO EXPRESS PTCLDY    54  53  97 CALM      29.98R
TOLEDO METCALF PTCLDY    59  54  83 CALM      29.98S
LIMA           MOCLDY    58  56  93 E5        29.96R

$$
AND FOR LAKE MICHIGAN COASTAL AND OPEN LAKE BUOY OBSERVATIONS

STATION/POSITION TEMP    WIND        PRES    VSBY  WAVE
                 AIR SEA DIR/SP/G                  HT/PER
                 (F)     (DEG/KT/KT) (MB)    (MI)  (FT/S)
CALUMET HARBOR    62      80/  4/  6   N/A
MICHIGAN CITY     60     100/  7/ 10   N/A
BURNS HARBOR      63     100/  7/ 12 1014.9S
SAINT JOSEPH      57      CALM  /  2   N/A
4 MI NW BRIDGMAN  59 61                N/A           1/ 4
MICHIGAN CITY     61 63   90/  6/  8   N/A           2/ 4

$$
&&



USA.gov is the U.S. government's official web portal to all federal, state and local government web resources and services.